一网星座-0043星 (ONEWEB-0043 )

导读 | 豆包AI

ONEWEB-0043是英国OneWeb星座的成员卫星,于2020年2月6日发射,是OneWeb构建全球低轨卫星互联网星座的组成部分。OneWeb计划部署数百颗低轨卫星,实现全球高速互联网覆盖,尤其服务偏远地区网络接入。该卫星运行在近地轨道,通过星群组网提供宽带互联服务。不过OneWeb曾因资金问题陷入破产重组,后完成破产保护程序,后续继续推进星座组网计划。ONEWEB-0043作为组网卫星,为OneWeb初步构建低轨通信网络发挥了支撑作用。

基本信息
目录编号:
45149
目录名称:
ONEWEB-0043
国际标识:
2020-008U
轨道中心:
EARTH
卫星名称:
一网星座-0043星
卫星全名:
一网星座-0043星 (ONEWEB-0043 )
卫星状态:
在轨 (已飞行2228 天)
发射日期:
2020-02-06 UTC
国别 :
英国 (GB)
星等 :
--
轨道信息
数据来源 国际轨道数据 AOE轨道数据
星历时间 2026-03-13T17:00:20+0800
17小时前
查看轨道信息
2026-03-11T15:00:00+0800
2天前
查看轨道信息
半长轴 7599.845km 7599.84km
偏心率 0.0001277 0.0001378
轨道倾角 87.879° 87.879°
近地点辐角 85.665° 95.233°
升交点赤经 55.338° 55.754°
平近点角 274.462° 161.571°
近地点 1220.737km 1220.655km
远地点 1222.679km 1222.751km
周期 109.892分钟 109.892分钟
每日圈数 13.103753 13.103767
详细信息
平衡模式:
三轴稳定
覆盖范围:
全球
运营商:
一网卫星公司
运营商所在国:
英国
制造商(研发单位):
一网卫星公司
制造商所在国:
英国
使用方式:
暂无
卫星简介
OneWeb卫星网络由648颗重约125公斤的微型卫星组成,运行在1200公里的轨道上。 每颗卫星都能够提供至少每秒8千兆位的吞吐量,以使用其高吞吐量的Ku频段有效载荷为家庭和移动平台提供互联网接入。该卫星仍在工作。
2D轨道图
3D轨道图
轨道高度分析图
轨道倾角分析图
轨道综合分析图
查看轨道综合分析图